Location: Rounton
(54.4000°N, 1.3500°W)
Time: 05:19:00
(UTC+00:00)

A-11 Canister half - Pass Details

Date: 06 December 2021
Orbit: 1524 x 1684 km, 47.3° (Epoch: 17 January)

Event Time Altitude Azimuth Distance (km) Brightness Sun altitude
Exits shadow 06:37:44 12° 272° (W) 3,724 10.4 -12.4°
Maximum altitude 06:45:52 38° 212° (SSW) 2,338 9.9 -11.3°
Drops below altitude 10° 06:54:29 10° 150° (SSE) 3,811 12.0 -10.2°
Sets 06:57:48 0° 142° (SE) 4,771 12.8 -9.7°
